星链-30551 (STARLINK-30551 )

导读

STARLINK-30551是美国太空探索技术公司Starlink卫星互联网项目的一颗卫星,于2023年10月18日发射升空,属于SpaceX部署的星link星座组网卫星之一,主要用于为全球提供高速低延迟互联网接入服务,进一步拓展星链系统的全球覆盖范围与服务能力。

Basic Information
目录编号:
58083
目录名称:
STARLINK-30551
国际标识:
2023-160J
轨道中心:
EARTH
卫星名称:
星链-30551
卫星全名:
星链-30551 (STARLINK-30551 )
卫星状态:
在轨 (已飞行976 天)
发射日期:
2023-10-18 UTC
国别 :
美国 (US)
星等 :
--
Orbit Information
数据来源 国际轨道数据 AOE轨道数据
星历时间 2026-06-19T13:13:19+0800
1天前
查看轨道信息
2026-06-17T07:00:00+0800
3天前
查看轨道信息
半长轴 6861.197km 6861.17km
偏心率 0.0000838 0.0001381
轨道倾角 43.000° 43.000°
近地点辐角 239.613° 215.444°
升交点赤经 227.875° 240.637°
平近点角 120.464° 305.867°
近地点 482.485km 482.085km
远地点 483.635km 483.981km
周期 94.267分钟 94.266分钟
每日圈数 15.275766 15.275854
Detailed Information
固有亮度:
5
最大亮度:
0.3
卫星平台:
Starlink v2.0 mini
覆盖范围:
全球
运营商:
太空探索技术公司
运营商所在国:
美国
制造商(研发单位):
太空探索技术公司
制造商所在国:
美国
使用方式:
暂无
Satellite Introduction
星链(Starlink)计划是由太空探索技术公司(SpaceX)提出的一个巨型低轨卫星互联网星座项目,计划在2019年至2024年间在太空搭建由约1.2万颗卫星组成的“星链”网络,其中1584颗将部署在地球上空550千米处的近地轨道,并从2020年开始工作。该卫星仍在工作。
2D Orbit Map
3D Orbit Map
Orbit Altitude Analysis Chart
Orbit Inclination Analysis Chart
Orbit Comprehensive Analysis Chart
View Comprehensive Chart